THY5TW LTBZ-LTFM

Flight info

Callsign THY5TW
Flight time 0h 39m
Altitude 28000
Route KARGI UT30 OTSIX M855 SISPI
Aircraft B738/M-SDE2E3FGHIRWXY/LB1

Departure

Time 2026-05-05 04:25
Airport Zafer Airport (LTBZ)

Arrival

Time 2026-05-05 05:04
Airport İstanbul Airport (LTFM)
Time Latitude Longitude Altitude Speed Heading
2026-05-05 04:05 39.11641 30.13167 3367 ft 0 kts 93°
2026-05-05 04:18 39.11641 30.13173 3359 ft 2 kts 97°
2026-05-05 04:18 39.11636 30.13183 3359 ft 2 kts 130°
2026-05-05 04:19 39.11625 30.13184 3374 ft 2 kts 191°
2026-05-05 04:19 39.11616 30.13170 3375 ft 3 kts 234°
2026-05-05 04:19 39.11599 30.13145 3369 ft 5 kts 225°
2026-05-05 04:19 39.11570 30.13109 3376 ft 7 kts 221°
2026-05-05 04:20 39.11527 30.13063 3372 ft 9 kts 220°
2026-05-05 04:20 39.11472 30.13004 3371 ft 11 kts 220°
2026-05-05 04:20 39.11406 30.12928 3367 ft 14 kts 223°
2026-05-05 04:20 39.11339 30.12851 3369 ft 12 kts 219°
2026-05-05 04:21 39.11261 30.12856 3373 ft 15 kts 137°
2026-05-05 04:21 39.11187 30.12965 3367 ft 18 kts 130°
2026-05-05 04:21 39.11102 30.13091 3376 ft 20 kts 131°
2026-05-05 04:21 39.11006 30.13230 3369 ft 22 kts 131°
2026-05-05 04:22 39.10904 30.13378 3371 ft 23 kts 131°
2026-05-05 04:22 39.10793 30.13539 3377 ft 25 kts 131°
2026-05-05 04:22 39.10677 30.13709 3372 ft 26 kts 131°
2026-05-05 04:22 39.10563 30.13878 3373 ft 20 kts 130°
2026-05-05 04:23 39.10471 30.14016 3371 ft 20 kts 130°
2026-05-05 04:23 39.10381 30.14148 3382 ft 18 kts 131°
2026-05-05 04:23 39.10327 30.14244 3379 ft 12 kts 103°
2026-05-05 04:23 39.10322 30.14331 3375 ft 9 kts 122°
2026-05-05 04:24 39.10271 30.14339 3378 ft 8 kts 223°
2026-05-05 04:24 39.10287 30.14276 3375 ft 8 kts 310°
2026-05-05 04:24 39.10324 30.14218 3372 ft 11 kts 310°
2026-05-05 04:25 39.11003 30.13226 3382 ft 133 kts 311°
2026-05-05 04:25 39.11713 30.12186 3542 ft 163 kts 311°
2026-05-05 04:25 39.12455 30.11099 4384 ft 159 kts 312°
2026-05-05 04:25 39.13182 30.10065 5299 ft 154 kts 314°
2026-05-05 04:26 39.13847 30.08885 5602 ft 174 kts 304°
2026-05-05 04:26 39.14495 30.07489 5805 ft 194 kts 304°
2026-05-05 04:26 39.15220 30.05936 5953 ft 211 kts 305°
2026-05-05 04:26 39.16021 30.04260 6147 ft 227 kts 306°
2026-05-05 04:27 39.16877 30.02502 6519 ft 237 kts 306°
2026-05-05 04:27 39.17803 30.00627 6806 ft 255 kts 306°
2026-05-05 04:27 39.18771 29.98674 7362 ft 261 kts 306°
2026-05-05 04:27 39.19755 29.96689 8019 ft 265 kts 307°
2026-05-05 04:28 39.20980 29.94939 8646 ft 263 kts 329°
2026-05-05 04:28 39.22661 29.94069 9346 ft 262 kts 353°
2026-05-05 04:28 39.24454 29.94095 10011 ft 264 kts 13°
2026-05-05 04:28 39.26206 29.94944 10380 ft 279 kts 24°
2026-05-05 04:29 39.28032 29.96069 10546 ft 302 kts 25°
2026-05-05 04:29 39.29973 29.97305 10795 ft 319 kts 25°
2026-05-05 04:29 39.31989 29.98587 11322 ft 326 kts 25°
2026-05-05 04:29 39.34039 29.99879 11970 ft 329 kts 25°
2026-05-05 04:30 39.36105 30.01170 12658 ft 331 kts 25°
2026-05-05 04:30 39.38192 30.02470 13383 ft 335 kts 25°
2026-05-05 04:30 39.40303 30.03783 14039 ft 339 kts 25°
2026-05-05 04:30 39.42493 30.04776 14688 ft 340 kts 10°
2026-05-05 04:31 39.44845 30.04874 15447 ft 341 kts 354°
2026-05-05 04:31 39.47179 30.04291 16172 ft 343 kts 349°
2026-05-05 04:31 39.49509 30.03586 16849 ft 345 kts 349°
2026-05-05 04:31 39.51855 30.02854 17506 ft 348 kts 349°
2026-05-05 04:32 39.54219 30.02124 18170 ft 351 kts 349°
2026-05-05 04:32 39.56599 30.01402 18772 ft 352 kts 349°
2026-05-05 04:32 39.58999 30.00684 19313 ft 356 kts 349°
2026-05-05 04:32 39.61419 29.99966 19847 ft 359 kts 349°
2026-05-05 04:33 39.63830 29.99254 20381 ft 361 kts 349°
2026-05-05 04:33 39.66292 29.98528 20910 ft 364 kts 349°
2026-05-05 04:33 39.68775 29.97795 21426 ft 367 kts 349°
2026-05-05 04:33 39.71278 29.97057 21925 ft 371 kts 349°
2026-05-05 04:34 39.73804 29.96311 22425 ft 374 kts 349°
2026-05-05 04:34 39.76339 29.95487 22901 ft 378 kts 345°
2026-05-05 04:34 39.78801 29.94222 23458 ft 381 kts 340°
2026-05-05 04:34 39.81218 29.92827 24072 ft 379 kts 339°
2026-05-05 04:35 39.83589 29.91464 24652 ft 376 kts 340°
2026-05-05 04:35 39.85988 29.90103 25159 ft 376 kts 340°
2026-05-05 04:35 39.88391 29.88750 25643 ft 377 kts 340°
2026-05-05 04:35 39.90813 29.87451 26020 ft 376 kts 346°
2026-05-05 04:36 39.93354 29.86891 26059 ft 368 kts 360°
2026-05-05 04:36 39.95927 29.86847 26045 ft 371 kts
2026-05-05 04:36 39.98506 29.86882 26047 ft 370 kts
2026-05-05 04:36 40.01076 29.86925 26048 ft 369 kts
2026-05-05 04:37 40.03640 29.86955 26050 ft 368 kts
2026-05-05 04:37 40.06165 29.86968 26044 ft 368 kts
2026-05-05 04:37 40.08721 29.86972 26052 ft 367 kts
2026-05-05 04:37 40.11277 29.86969 26048 ft 368 kts
2026-05-05 04:38 40.13837 29.86965 26049 ft 367 kts
2026-05-05 04:38 40.16352 29.86959 26035 ft 354 kts
2026-05-05 04:38 40.18778 29.86954 26036 ft 346 kts
2026-05-05 04:38 40.21176 29.86950 26040 ft 343 kts
2026-05-05 04:39 40.23565 29.86946 26029 ft 344 kts
2026-05-05 04:39 40.25933 29.86943 25757 ft 343 kts
2026-05-05 04:39 40.28304 29.86938 25411 ft 339 kts
2026-05-05 04:39 40.30653 29.86934 25077 ft 336 kts
2026-05-05 04:40 40.32985 29.86930 24700 ft 334 kts
2026-05-05 04:40 40.35284 29.86584 24207 ft 336 kts 345°
2026-05-05 04:40 40.37378 29.85151 23500 ft 346 kts 328°
2026-05-05 04:40 40.39131 29.82945 22709 ft 353 kts 316°
2026-05-05 04:41 40.40701 29.80457 21924 ft 355 kts 314°
2026-05-05 04:41 40.42246 29.77918 21135 ft 357 kts 314°
2026-05-05 04:41 40.43770 29.75398 20388 ft 357 kts 314°
2026-05-05 04:41 40.45314 29.72854 19637 ft 356 kts 314°
2026-05-05 04:42 40.46863 29.70319 18939 ft 355 kts 314°
2026-05-05 04:42 40.48409 29.67799 18216 ft 353 kts 314°
2026-05-05 04:42 40.49934 29.65318 17806 ft 340 kts 314°
2026-05-05 04:42 40.51391 29.62946 17436 ft 327 kts 314°
2026-05-05 04:43 40.52796 29.60663 17090 ft 317 kts 314°
2026-05-05 04:43 40.54170 29.58437 16776 ft 312 kts 314°
2026-05-05 04:43 40.55514 29.56263 16432 ft 310 kts 314°
2026-05-05 04:43 40.56866 29.54073 16085 ft 307 kts 314°
2026-05-05 04:44 40.58207 29.51900 15767 ft 305 kts 314°
2026-05-05 04:44 40.59536 29.49738 15429 ft 304 kts 313°
2026-05-05 04:44 40.60705 29.47402 15164 ft 307 kts 306°
2026-05-05 04:44 40.61755 29.44953 14916 ft 307 kts 304°
2026-05-05 04:45 40.62779 29.42477 14687 ft 309 kts 304°
2026-05-05 04:45 40.63810 29.39985 14448 ft 311 kts 304°
2026-05-05 04:45 40.64853 29.37485 14203 ft 311 kts 304°
2026-05-05 04:45 40.65897 29.35001 13964 ft 309 kts 304°
2026-05-05 04:46 40.66927 29.32564 13715 ft 308 kts 304°
2026-05-05 04:46 40.67971 29.30104 13440 ft 307 kts 305°
2026-05-05 04:46 40.69011 29.27659 13174 ft 305 kts 305°
2026-05-05 04:46 40.70047 29.25226 12908 ft 304 kts 305°
2026-05-05 04:47 40.71082 29.22795 12662 ft 304 kts 305°
2026-05-05 04:47 40.72108 29.20384 12397 ft 297 kts 305°
2026-05-05 04:47 40.73099 29.18048 12108 ft 287 kts 305°
2026-05-05 04:47 40.74055 29.15792 11836 ft 277 kts 305°
2026-05-05 04:48 40.74971 29.13634 11570 ft 270 kts 305°
2026-05-05 04:48 40.75880 29.11496 11312 ft 266 kts 305°
2026-05-05 04:48 40.76780 29.09381 11058 ft 264 kts 305°
2026-05-05 04:48 40.77685 29.07254 10836 ft 269 kts 305°
2026-05-05 04:49 40.78611 29.05079 10640 ft 273 kts 305°
2026-05-05 04:49 40.79547 29.02873 10368 ft 276 kts 305°
2026-05-05 04:49 40.80469 29.00689 10263 ft 269 kts 305°
2026-05-05 04:49 40.81371 28.98552 10140 ft 265 kts 305°
2026-05-05 04:50 40.82256 28.96456 10023 ft 258 kts 306°
2026-05-05 04:50 40.83115 28.94422 9751 ft 257 kts 305°
2026-05-05 04:50 40.83980 28.92374 9474 ft 254 kts 305°
2026-05-05 04:50 40.84838 28.90342 9203 ft 252 kts 305°
2026-05-05 04:51 40.85578 28.88239 8916 ft 258 kts 288°
2026-05-05 04:51 40.85568 28.85848 8724 ft 266 kts 263°
2026-05-05 04:51 40.85032 28.83466 8454 ft 276 kts 256°
2026-05-05 04:51 40.84381 28.81048 8175 ft 282 kts 255°
2026-05-05 04:52 40.83718 28.78615 7994 ft 278 kts 255°
2026-05-05 04:52 40.83087 28.76255 7926 ft 275 kts 256°
2026-05-05 04:52 40.82455 28.73844 7692 ft 281 kts 256°
2026-05-05 04:52 40.81810 28.71385 7443 ft 287 kts 253°
2026-05-05 04:53 40.81057 28.68927 7202 ft 289 kts 251°
2026-05-05 04:53 40.80275 28.66494 6939 ft 286 kts 251°
2026-05-05 04:53 40.79531 28.64111 6723 ft 273 kts 259°
2026-05-05 04:53 40.79521 28.61764 6704 ft 249 kts 297°
2026-05-05 04:54 40.80533 28.59993 6712 ft 244 kts 333°
2026-05-05 04:54 40.82121 28.59432 6634 ft 238 kts
2026-05-05 04:54 40.83566 28.60275 6536 ft 231 kts 43°
2026-05-05 04:54 40.84651 28.61770 6445 ft 221 kts 34°
2026-05-05 04:55 40.85982 28.62649 6398 ft 213 kts 21°
2026-05-05 04:55 40.87358 28.63377 6281 ft 212 kts 24°
2026-05-05 04:55 40.88620 28.64360 6131 ft 210 kts 34°
2026-05-05 04:55 40.89784 28.65509 5970 ft 208 kts 36°
2026-05-05 04:56 40.90925 28.66661 5831 ft 205 kts 36°
2026-05-05 04:56 40.92057 28.67798 5682 ft 204 kts 36°
2026-05-05 04:56 40.93194 28.68934 5548 ft 206 kts 35°
2026-05-05 04:56 40.94326 28.70062 5406 ft 206 kts 35°
2026-05-05 04:57 40.95446 28.71178 5240 ft 198 kts 35°
2026-05-05 04:57 40.96538 28.72263 5123 ft 198 kts 34°
2026-05-05 04:57 40.97810 28.72884 5042 ft 196 kts
2026-05-05 04:57 40.99163 28.73043 5026 ft 195 kts
2026-05-05 04:58 41.00513 28.73173 5007 ft 193 kts
2026-05-05 04:58 41.01837 28.73214 4987 ft 188 kts
2026-05-05 04:58 41.03135 28.73214 4941 ft 193 kts
2026-05-05 04:58 41.04498 28.73198 4683 ft 196 kts
2026-05-05 04:59 41.05830 28.73173 4416 ft 186 kts
2026-05-05 04:59 41.07088 28.73147 4161 ft 176 kts
2026-05-05 04:59 41.08309 28.73124 3928 ft 176 kts
2026-05-05 04:59 41.09530 28.73103 3690 ft 175 kts
2026-05-05 05:00 41.10753 28.73078 3455 ft 176 kts
2026-05-05 05:00 41.11982 28.73053 3201 ft 176 kts
2026-05-05 05:00 41.13167 28.73031 2991 ft 170 kts
2026-05-05 05:00 41.14325 28.73010 2764 ft 161 kts
2026-05-05 05:01 41.15426 28.72986 2557 ft 154 kts
2026-05-05 05:01 41.16496 28.72964 2335 ft 151 kts
2026-05-05 05:01 41.17503 28.72944 2126 ft 138 kts
2026-05-05 05:01 41.18443 28.72926 1957 ft 137 kts
2026-05-05 05:02 41.19392 28.72909 1748 ft 133 kts
2026-05-05 05:02 41.20313 28.72891 1548 ft 133 kts 359°
2026-05-05 05:02 41.21224 28.72873 1417 ft 132 kts 359°
2026-05-05 05:02 41.22135 28.72862 1189 ft 128 kts 359°
2026-05-05 05:03 41.23031 28.72853 1008 ft 129 kts 356°
2026-05-05 05:03 41.23947 28.72815 826 ft 132 kts 356°
2026-05-05 05:03 41.24887 28.72803 657 ft 139 kts 358°
2026-05-05 05:03 41.25879 28.72781 473 ft 144 kts 357°
2026-05-05 05:04 41.26875 28.72757 346 ft 137 kts 359°
2026-05-05 05:04 41.27704 28.72736 332 ft 93 kts 360°
2026-05-05 05:04 41.28006 28.72767 333 ft 20 kts 50°
2026-05-05 05:04 41.28108 28.72862 332 ft 15 kts 41°
2026-05-05 05:05 41.28091 28.72963 331 ft 15 kts 167°
2026-05-05 05:05 41.27991 28.72963 332 ft 14 kts 181°
2026-05-05 05:05 41.27896 28.72967 333 ft 13 kts 177°
2026-05-05 05:05 41.27823 28.72971 333 ft 0 kts 178°